Temperature
23 22 22 22 21 21 22 24 24 24 23 23 23 23 22 21 20 19 19 19 19 19 19 19 19 19 19 19 19 19 19 19 19 19 19 19 19 19 19 19 19 19 19 19 19 18 18 18 18
23 23 22 22 21 21 23 24 24 24 24 23 23 22 21 20 19 19 19 19 20 20 19 19 19 19 19 19 19 19 19 19 19 19 19 19 19 19 19 19 19 19 19 19 19 18 18 18 18
23 22 22 21 22 22 23 24 24 24 24 24 23 22 21 20 19 19 19 19 20 20 20 19 19 19 19 19 19 19 19 19 19 19 19 19 19 19 19 19 18 18 18 19 19 18 18 19 18
23 22 22 22 23 24 25 25 25 24 24 23 23 22 21 20 20 20 19 20 20 20 20 20 20 20 19 19 19 19 19 19 19 19 19 19 19 19 19 19 19 19 19 18 18 18 19 18 18
23 23 22 22 24 25 26 26 25 24 24 23 22 21 20 20 20 20 20 20 20 20 20 19 19 20 20 19 19 19 19 19 19 19 19 19 19 19 19 19 19 19 19 19 19 19 19 18 18
24 23 22 23 25 26 26 26 25 24 23 23 22 21 20 20 20 20 20 20 20 20 20 20 20 20 20 19 19 19 19 19 19 19 19 19 19 19 19 19 19 19 19 19 19 19 19 18 18
24 22 23 24 25 25 26 26 25 24 23 23 22 20 20 20 20 20 20 20 20 20 20 20 20 19 19 19 19 19 19 19 19 19 19 19 19 19 19 19 19 19 19 18 19 19 19 19 18
25 23 24 24 25 26 26 26 25 24 24 23 22 20 20 20 20 20 20 20 20 20 20 20 20 19 19 19 19 19 19 19 19 19 19 19 19 19 19 19 19 19 19 19 19 19 19 19 18
26 23 23 25 25 26 26 26 26 25 24 23 22 22 21 20 20 20 19 19 19 20 20 20 20 20 19 19 19 19 19 19 19 19 19 19 19 19 19 19 19 19 19 19 18 18 19 19 18
26 23 25 26 26 26 27 26 26 24 23 22 22 21 21 21 20 20 20 20 20 20 20 20 20 20 19 19 19 19 19 19 19 19 19 19 19 19 19 19 19 19 18 18 18 18 18 18 18
26 25 27 27 28 27 27 26 26 24 22 22 21 21 21 21 20 20 20 20 20 20 20 20 20 19 19 19 19 19 19 19 19 19 19 19 19 19 19 19 19 19 19 18 18 18 18 18 18
27 28 29 28 28 28 27 26 25 25 23 23 23 22 21 21 21 20 20 20 20 20 20 20 20 19 19 19 19 19 19 19 19 19 19 18 19 19 19 19 18 18 18 18 18 19 18 19 19
27 28 29 29 28 28 27 26 25 24 24 23 22 22 21 21 21 21 21 20 20 20 20 20 20 20 20 19 19 19 19 19 19 19 19 19 19 19 19 19 19 18 18 18 18 18 18 18 19
28 29 29 29 28 28 27 26 25 24 23 23 22 22 22 22 21 21 21 21 20 20 20 20 20 20 20 20 19 19 19 19 19 19 19 19 19 19 19 19 19 19 19 18 18 19 19 19 19
29 28 28 28 28 27 26 25 24 24 23 23 23 22 22 22 22 21 21 21 21 21 21 20 20 20 20 20 19 19 19 19 19 19 19 19 19 19 19 19 19 19 19 19 19 19 19 19 19
27 26 26 28 28 27 25 24 25 24 24 23 23 22 22 22 22 22 22 21 21 21 21 20 20 20 20 20 19 19 19 19 19 19 19 19 19 19 19 19 19 19 19 19 19 19 19 19 19
25 25 26 27 28 27 25 24 25 25 24 23 23 23 22 22 22 22 22 22 21 21 21 21 20 20 20 20 19 19 19 19 19 19 19 19 19 19 19 19 19 19 19 19 19 19 19 19 19
25 25 26 26 27 27 25 24 25 25 24 24 24 23 23 22 23 22 22 22 22 21 21 21 20 20 20 20 20 19 19 19 19 19 19 19 19 19 19 19 19 19 19 19 19 19 19 19 19
26 26 26 27 27 26 25 25 25 25 25 24 24 23 23 23 23 23 22 22 22 21 21 21 20 20 20 20 20 20 19 19 19 19 19 19 19 19 19 19 19 19 19 19 19 19 19 19 19
27 26 26 27 27 26 25 24 24 25 24 24 24 23 23 23 23 23 22 22 22 21 21 21 20 20 20 20 20 20 19 19 19 19 19 19 19 19 19 19 19 19 19 19 19 19 19 19 19
27 27 26 26 26 26 25 24 24 24 24 24 24 24 24 23 23 23 22 22 22 22 21 21 21 20 20 20 20 19 19 19 19 19 19 19 19 19 19 19 19 19 19 19 19 19 19 19 19
27 28 28 27 25 24 25 23 23 23 23 24 24 24 24 24 23 23 23 22 22 22 22 21 21 20 20 20 20 20 20 19 20 19 19 19 19 19 19 19 19 19 19 19 19 19 18 18 18
28 29 28 27 25 23 23 23 22 22 22 23 23 24 24 24 23 23 23 23 22 22 22 21 21 21 20 20 20 20 20 20 20 19 19 19 19 19 19 19 19 19 19 19 19 19 18 18 18
29 27 26 24 22 23 24 23 23 22 23 23 23 24 24 23 23 23 23 23 22 22 22 21 21 21 21 20 20 20 20 20 19 19 19 19 19 19 19 19 19 19 19 19 19 18 18 18 18
28 24 23 23 22 22 23 23 22 24 24 24 24 24 24 23 23 23 23 22 22 22 22 22 21 21 20 20 20 20 20 20 20 19 19 19 19 19 19 19 19 19 19 19 19 18 18 18 18
27 24 23 24 23 22 23 23 23 24 25 25 24 24 23 23 23 23 23 22 22 22 22 22 21 21 21 20 20 20 20 20 20 19 19 19 19 19 19 19 19 19 19 18 18 18 18 18 18
27 25 23 22 23 22 22 23 24 24 24 23 23 23 23 23 23 23 23 22 22 22 22 22 21 21 21 20 20 20 20 20 20 19 19 19 19 19 19 19 19 19 18 18 18 18 18 18 18
27 25 22 22 22 23 23 23 22 23 23 22 22 22 23 23 23 23 23 23 22 22 22 21 21 21 21 21 20 20 20 20 19 19 19 19 19 19 19 19 19 19 19 18 18 18 18 18 18
27 26 23 21 21 21 22 22 24 23 22 22 22 22 23 23 23 23 22 22 22 22 21 21 21 21 21 20 20 20 20 20 20 19 19 19 19 19 19 19 19 18 18 18 18 18 18 18 17
27 26 23 23 22 20 21 22 24 23 23 22 22 22 23 23 23 23 22 22 22 21 21 21 21 21 20 20 20 19 19 19 19 19 19 19 18 18 18 18 18 18 18 18 18 17 17 17 17
Wind_Speed
7 5 2 0 3 4 4 4 6 8 6 7 11 11 10 7 5 7 5 12 12 9 11 13 15 15 15 16 16 16 16 16 15 15 15 15 16 16 15 14 14 13 12 12 11 10 9 9 9
5 3 1 2 4 5 4 5 10 10 11 11 12 12 10 8 7 10 7 11 12 11 11 13 15 15 15 15 15 15 15 15 14 14 15 14 14 14 14 13 13 12 11 11 10 8 8 7 7
4 3 1 2 3 4 5 7 11 11 10 7 7 7 6 7 9 8 9 14 11 10 12 14 16 16 15 15 15 14 14 14 14 14 13 13 13 13 13 12 11 11 10 9 9 7 7 6 5
2 2 2 4 4 4 7 10 12 13 9 8 9 8 5 6 7 10 15 14 12 9 12 15 16 16 15 15 14 14 13 13 13 13 12 12 12 12 12 11 10 9 9 8 7 6 5 5 4
1 3 4 4 4 5 8 11 12 10 6 9 11 9 5 4 13 17 15 14 13 9 11 14 16 15 15 14 14 13 13 12 12 11 11 11 11 10 10 10 9 8 8 7 6 5 4 4 3
2 3 4 3 4 6 7 11 14 14 13 12 12 9 4 7 14 15 14 12 11 11 10 13 15 14 14 13 13 12 12 11 11 11 10 10 10 9 9 9 8 8 7 6 6 5 4 4 4
2 3 3 5 5 6 7 9 11 13 12 9 10 7 5 7 11 13 13 12 10 10 9 9 12 13 13 13 12 12 11 10 10 10 9 9 8 8 8 8 7 7 7 6 6 6 5 5 5
3 3 3 4 6 5 7 7 10 12 9 12 8 9 9 10 11 13 12 11 10 8 8 8 9 10 10 10 11 11 10 9 9 9 9 9 8 8 7 7 6 6 6 6 6 6 6 6 6
3 4 3 5 7 5 7 10 9 9 11 7 5 8 13 15 14 13 11 9 8 8 6 7 7 8 9 9 10 10 10 9 8 7 8 7 6 6 6 6 7 7 7 7 7 7 7 7 7
4 4 5 6 7 8 9 12 10 8 10 9 12 13 15 15 14 14 14 12 10 10 8 7 7 8 9 8 9 8 8 8 7 6 6 6 5 5 5 6 6 6 6 6 7 7 7 7 6
5 5 4 4 8 10 9 9 7 11 8 12 18 19 16 14 13 12 12 11 11 12 10 9 8 8 8 5 7 7 6 7 6 6 6 5 4 4 4 3 4 4 4 4 5 5 5 5 5
4 4 6 6 7 8 9 8 7 8 10 15 19 19 16 14 13 12 12 11 10 10 10 9 8 7 7 7 6 6 5 5 5 7 7 5 3 2 3 3 4 4 4 3 4 4 4 4 5
4 3 5 8 10 9 10 9 9 9 14 15 17 16 14 13 11 10 10 10 10 10 9 9 8 7 7 6 5 5 5 5 6 6 7 7 4 3 3 3 3 4 4 3 3 3 3 3 4
2 2 4 6 8 9 12 9 7 10 15 15 16 14 13 13 12 10 10 10 10 10 9 8 8 7 6 5 4 4 5 5 5 5 6 7 6 4 2 2 2 3 4 4 3 3 3 3 2
3 3 3 3 6 7 12 6 8 14 15 15 14 13 13 11 12 12 13 11 12 11 10 9 9 7 6 5 4 4 5 6 4 5 6 7 6 5 3 2 2 3 4 3 2 2 1 1 1
4 3 2 2 4 5 9 6 8 14 15 14 13 13 11 10 12 12 13 12 11 11 10 9 9 8 7 5 4 3 3 5 4 5 5 6 6 5 3 2 2 3 2 1 1 0 1 1 1
3 0 2 3 3 5 5 6 9 12 14 13 12 12 11 10 10 12 13 13 13 12 11 9 8 8 7 5 4 3 3 3 4 5 4 5 5 4 3 2 2 3 1 1 1 0 1 1 1
4 3 2 3 3 3 3 5 11 12 13 14 12 11 11 13 12 13 13 13 12 11 10 10 8 8 7 4 3 1 1 2 3 3 4 5 5 5 3 2 2 1 1 1 1 1 1 1 2
6 4 4 4 2 3 4 6 10 10 10 12 11 11 11 11 11 12 13 13 12 10 10 10 9 8 6 4 3 3 2 2 2 3 5 6 5 5 4 2 2 1 1 2 2 1 1 1 1
2 2 2 2 1 3 2 3 6 8 10 11 12 12 12 9 9 11 12 13 12 12 11 10 10 9 7 5 4 3 3 3 3 3 4 6 6 5 5 4 3 2 1 1 1 1 0 1 0
2 2 3 2 0 1 3 2 4 4 4 6 9 10 10 13 13 13 13 12 12 12 12 11 9 9 8 6 3 2 1 0 1 1 2 4 6 5 4 4 3 3 2 2 2 1 2 2 2
3 4 3 3 2 2 3 3 5 5 4 6 8 9 9 11 11 12 13 12 13 12 11 9 9 8 7 7 6 5 4 4 4 3 3 3 4 4 5 4 3 3 3 2 2 2 2 2 2
5 3 3 3 2 1 1 3 5 3 6 9 9 10 10 10 12 12 12 12 11 11 11 10 9 9 8 7 8 7 5 4 2 2 2 2 2 3 4 4 4 4 3 3 3 3 2 2 2
3 3 4 4 4 2 4 3 4 4 9 9 9 10 10 10 11 10 9 8 8 8 9 9 8 8 8 8 7 7 7 5 3 3 3 2 2 2 3 3 3 3 3 4 4 3 3 2 2
4 6 4 4 4 5 3 2 6 6 8 9 10 10 9 10 10 9 8 8 7 8 9 9 8 7 7 7 7 7 7 6 5 4 4 3 2 2 3 3 3 3 3 4 4 3 2 2 1
3 9 7 5 4 4 3 2 5 4 5 5 5 7 8 9 9 9 10 10 9 9 8 9 8 7 7 7 6 5 5 4 4 4 3 3 3 3 3 2 2 2 2 3 2 2 2 2 2
3 4 9 7 3 1 2 2 4 2 3 5 6 8 9 9 9 9 9 9 9 8 7 8 8 6 6 6 5 4 5 4 4 3 3 3 2 2 2 2 2 2 2 2 2 1 2 1 1
6 6 6 5 4 2 2 3 4 4 3 5 7 8 9 8 8 9 8 8 8 8 7 6 6 7 6 5 5 5 4 3 3 3 3 3 2 2 2 2 2 2 2 2 1 1 1 1 1
1 2 5 5 6 6 3 6 6 9 9 9 9 9 9 9 9 8 8 7 7 7 8 7 6 5 5 5 5 4 3 3 2 3 3 3 2 2 2 2 2 2 2 1 1 1 1 1 1
5 5 6 4 3 4 4 6 4 7 8 9 9 9 8 8 7 8 8 7 6 6 7 7 6 5 5 5 4 4 3 2 2 3 3 2 2 2 2 2 2 2 1 1 1 1 0 0 1
Wind_Direction
190 186 175 202 52 63 76 80 94 88 66 67 80 88 84 68 100 127 143 139 135 136 134 126 121 118 116 115 113 112 110 109 109 109 111 114 117 119 119 121 121 120 121 121 120 117 116 115 114
174 172 169 35 76 86 88 101 93 96 116 108 84 81 76 70 86 115 128 141 137 136 134 129 125 122 119 118 116 115 115 114 113 113 114 117 119 121 121 122 124 124 124 124 123 122 122 121 118
178 186 129 65 87 120 119 112 107 105 109 102 90 66 71 101 115 131 145 142 133 131 133 134 130 127 125 122 120 120 119 118 117 117 117 121 124 125 127 127 127 127 128 129 128 128 127 129 127
163 127 52 82 104 125 128 126 115 107 84 81 96 77 68 104 123 134 138 137 133 133 138 139 134 132 130 128 126 124 123 122 121 121 121 124 128 128 131 132 133 134 135 137 140 141 141 141 144
120 86 67 78 93 111 118 122 117 107 93 96 97 95 77 80 116 129 136 137 138 138 140 140 137 137 135 134 132 130 127 127 128 128 128 130 132 135 138 140 142 144 147 148 154 161 165 165 168
71 73 82 93 106 105 118 121 110 108 113 109 105 103 100 125 126 136 139 140 141 142 143 145 144 142 140 139 139 136 133 133 135 136 137 140 141 143 145 147 151 155 159 164 171 180 188 197 204
120 104 130 131 116 118 130 131 122 129 129 125 124 104 121 138 137 138 138 137 138 143 145 147 151 150 148 146 146 145 143 142 143 145 146 150 151 151 155 157 163 170 176 181 188 196 206 219 229
155 109 102 118 121 130 137 125 134 133 120 126 124 129 153 158 141 136 136 135 139 145 152 154 153 155 153 153 154 154 152 152 152 151 153 157 159 161 168 172 178 185 191 197 204 212 221 231 240
123 92 136 157 141 138 129 115 118 107 121 128 114 131 149 144 138 135 135 135 146 154 161 162 159 160 161 163 166 165 161 165 162 163 167 167 170 175 182 187 193 199 203 210 217 226 233 240 248
129 140 186 182 149 138 131 126 124 108 109 105 110 122 137 140 144 147 152 158 164 167 173 174 172 170 172 174 167 170 170 175 174 177 175 171 180 190 192 195 204 208 215 223 230 237 245 248 251
143 158 167 155 145 138 135 128 118 123 128 144 144 147 151 150 154 158 163 167 173 172 174 176 177 175 175 169 163 172 176 178 182 182 181 178 182 196 197 198 213 220 227 242 250 254 253 246 243
129 158 152 146 139 135 137 128 116 132 151 152 150 153 157 160 166 171 172 173 166 165 172 171 172 173 175 169 170 172 177 181 184 189 188 178 178 194 200 206 218 222 230 242 253 258 252 247 242
127 121 110 127 130 139 125 120 117 128 136 142 148 153 162 168 172 173 170 168 162 165 169 171 168 165 164 162 172 172 182 183 186 184 187 181 177 189 201 214 215 217 227 231 238 246 249 249 246
174 120 125 136 130 134 125 122 111 142 144 148 154 163 171 172 169 165 163 165 166 167 169 170 165 164 159 161 168 170 177 181 185 186 185 180 176 180 186 204 212 230 235 232 227 224 233 242 237
81 66 60 128 129 133 115 106 141 154 151 156 163 168 173 173 167 167 169 168 167 165 165 165 164 164 163 163 173 168 178 176 179 190 187 183 181 182 184 200 225 240 252 245 240 249 248 261 272
45 57 39 265 130 142 117 157 171 159 156 163 169 170 171 176 173 172 169 167 164 162 165 172 168 166 169 167 173 172 176 175 182 193 189 193 192 188 181 194 238 254 256 238 239 284 322 306 312
16 48 237 260 191 156 131 167 177 168 164 169 174 173 173 176 179 173 171 169 167 168 168 171 168 169 174 169 169 174 176 182 185 191 197 205 205 198 184 207 251 262 241 253 255 173 200 260 297
248 239 240 237 233 149 153 177 175 178 171 177 179 176 176 182 186 178 172 170 167 168 168 170 170 174 170 160 154 152 176 209 192 198 204 201 204 205 192 203 262 280 281 293 274 271 249 224 249
208 217 252 240 229 139 178 174 179 181 177 183 183 179 184 189 186 177 172 169 166 166 168 172 171 176 165 161 169 178 207 221 222 219 207 198 203 207 195 205 222 205 208 245 251 234 280 286 274
228 237 267 312 154 150 162 201 191 187 190 187 185 186 185 183 179 176 173 171 172 173 175 175 177 178 178 178 178 181 191 212 218 222 215 209 209 213 207 197 212 216 218 262 273 212 265 290 196
258 213 225 204 1 127 105 313 237 214 194 191 190 188 182 182 180 179 176 177 175 178 180 181 182 182 183 179 166 166 141 66 237 222 223 223 214 214 207 195 202 220 210 231 249 226 195 251 286
242 233 183 167 107 246 162 214 262 206 202 207 194 187 186 184 171 176 176 177 181 185 179 176 179 182 185 179 176 179 189 209 221 215 218 229 220 210 204 200 198 218 214 219 239 226 211 203 260
216 211 162 183 151 39 354 145 267 186 197 213 201 192 187 183 173 172 176 180 181 182 179 179 178 186 187 187 186 185 196 211 217 204 201 220 237 221 209 202 198 215 222 219 233 233 225 203 208
183 60 36 46 66 7 257 152 263 219 201 200 200 192 181 172 170 171 172 169 175 173 177 178 177 187 187 188 187 188 194 199 200 205 212 227 237 240 228 212 211 215 213 213 219 227 219 216 208
94 89 34 1 6 261 264 138 245 232 195 193 194 190 180 171 168 166 168 173 178 175 173 172 176 187 189 189 189 192 195 195 200 205 202 206 225 242 241 228 219 217 216 215 211 211 223 224 219
191 138 157 197 219 273 327 220 258 253 188 167 166 172 167 165 167 170 174 178 179 176 171 169 173 183 184 186 192 192 187 192 202 195 186 194 210 225 231 225 217 211 211 218 204 213 233 231 231
177 185 171 145 160 147 281 276 313 5 93 120 129 138 151 162 169 170 171 170 169 168 171 171 170 173 179 183 181 182 181 185 188 183 179 186 206 216 217 207 201 205 202 208 199 206 249 256 246
166 162 96 116 150 208 264 249 220 197 181 146 142 149 154 159 161 161 165 160 163 166 167 165 170 175 180 180 183 184 189 189 188 179 184 196 207 215 214 212 206 201 211 213 197 227 254 249 274
69 82 108 124 149 156 212 257 221 192 180 164 166 166 164 166 164 164 159 157 157 154 160 172 178 176 181 186 185 175 184 188 185 195 208 206 211 209 207 211 202 202 213 221 194 222 216 229 279
164 169 140 145 224 165 174 258 258 182 173 163 163 167 168 163 161 162 156 147 148 157 164 169 175 178 184 185 174 169 166 157 177 201 204 195 203 210 196 183 179 196 194 193 200 224 240 213 278
Height
1510 1510 1510 1511 1512 1521 1524 1517 1511 1511 1512 1513 1512 1513 1517 1521 1526 1535 1534 1534 1536 1537 1538 1540 1540 1540 1540 1541 1541 1542 1542 1543 1543 1544 1544 1545 1546 1547 1548 1549 1550 1550 1551 1552 1553 1554 1554 1555 1556
1510 1510 1511 1512 1518 1531 1527 1515 1513 1512 1514 1514 1515 1517 1519 1524 1526 1529 1532 1535 1537 1538 1539 1541 1541 1542 1542 1543 1543 1544 1544 1544 1545 1545 1546 1547 1548 1549 1549 1550 1551 1552 1552 1553 1554 1555 1555 1556 1557
1510 1511 1512 1514 1522 1528 1524 1514 1513 1514 1515 1514 1517 1520 1523 1527 1529 1531 1533 1536 1538 1539 1541 1542 1543 1543 1544 1544 1545 1545 1546 1546 1547 1547 1548 1548 1549 1550 1551 1552 1552 1553 1554 1554 1555 1556 1556 1557 1558
1511 1512 1514 1518 1522 1515 1513 1512 1512 1515 1516 1517 1518 1524 1528 1530 1530 1532 1535 1537 1539 1540 1542 1543 1544 1545 1545 1546 1546 1547 1547 1548 1548 1549 1549 1550 1551 1551 1552 1553 1553 1554 1554 1555 1556 1556 1557 1558 1558
1511 1513 1518 1523 1519 1513 1510 1511 1511 1514 1517 1519 1519 1526 1530 1533 1533 1534 1536 1538 1540 1541 1543 1544 1545 1546 1547 1547 1548 1548 1549 1549 1550 1550 1551 1551 1552 1553 1553 1554 1554 1555 1555 1556 1556 1557 1558 1558 1559
1512 1514 1526 1529 1520 1513 1512 1512 1512 1516 1519 1522 1523 1527 1533 1534 1534 1536 1538 1540 1542 1542 1544 1545 1547 1548 1548 1549 1549 1550 1550 1551 1551 1552 1552 1553 1553 1554 1554 1555 1555 1555 1556 1556 1557 1558 1558 1559 1560
1513 1516 1523 1522 1520 1517 1513 1513 1513 1517 1520 1522 1523 1528 1534 1536 1536 1538 1540 1541 1543 1544 1545 1546 1548 1549 1549 1550 1551 1551 1552 1552 1553 1553 1553 1554 1554 1555 1555 1556 1556 1556 1557 1557 1558 1558 1559 1559 1560
1512 1516 1520 1520 1519 1517 1513 1513 1515 1516 1520 1524 1524 1527 1532 1535 1537 1539 1541 1543 1544 1545 1546 1547 1548 1549 1550 1551 1552 1553 1553 1553 1554 1554 1554 1555 1555 1556 1556 1556 1557 1557 1557 1558 1558 1559 1559 1560 1560
1511 1519 1525 1519 1517 1516 1512 1513 1517 1518 1520 1524 1525 1526 1530 1534 1537 1539 1541 1543 1544 1546 1547 1548 1549 1550 1551 1552 1553 1553 1554 1554 1555 1555 1555 1556 1556 1557 1557 1557 1557 1558 1558 1558 1559 1559 1560 1560 1561
1510 1520 1516 1509 1508 1511 1513 1513 1516 1520 1522 1525 1527 1529 1532 1534 1536 1538 1540 1542 1544 1545 1547 1549 1550 1551 1552 1553 1554 1554 1555 1555 1555 1556 1556 1557 1557 1557 1558 1558 1558 1558 1559 1559 1559 1559 1560 1560 1560
1507 1512 1507 1506 1506 1509 1512 1514 1515 1519 1523 1524 1525 1529 1532 1534 1536 1538 1540 1541 1543 1545 1547 1549 1550 1551 1552 1553 1554 1555 1555 1556 1556 1556 1557 1557 1558 1558 1558 1558 1559 1559 1559 1559 1560 1560 1559 1560 1560
1506 1505 1505 1505 1507 1509 1511 1513 1516 1517 1521 1523 1525 1527 1531 1533 1535 1537 1538 1541 1543 1545 1547 1548 1550 1551 1552 1554 1554 1555 1556 1556 1556 1557 1557 1558 1558 1558 1558 1559 1559 1559 1559 1559 1559 1559 1559 1559 1559
1505 1505 1505 1505 1506 1509 1511 1513 1516 1519 1522 1524 1527 1529 1531 1533 1534 1536 1538 1540 1542 1544 1546 1548 1550 1551 1552 1554 1555 1555 1556 1556 1557 1557 1557 1558 1558 1558 1559 1559 1559 1559 1559 1559 1559 1559 1559 1559 1558
1505 1505 1505 1505 1506 1509 1512 1516 1518 1522 1523 1525 1527 1529 1531 1532 1534 1536 1538 1539 1541 1543 1546 1548 1550 1551 1552 1553 1555 1555 1556 1556 1557 1557 1558 1558 1558 1559 1559 1559 1559 1559 1559 1559 1559 1558 1558 1558 1558
1505 1507 1507 1506 1507 1510 1512 1519 1519 1520 1522 1525 1527 1529 1530 1532 1534 1535 1537 1538 1541 1543 1545 1547 1549 1551 1552 1553 1554 1555 1556 1556 1557 1557 1558 1558 1559 1559 1559 1559 1559 1559 1559 1559 1558 1558 1558 1557 1557
1507 1513 1519 1510 1507 1510 1516 1528 1519 1520 1521 1524 1526 1528 1530 1532 1533 1535 1537 1538 1541 1543 1545 1547 1549 1550 1552 1553 1554 1555 1555 1556 1557 1557 1558 1558 1558 1559 1558 1558 1558 1558 1558 1558 1558 1557 1557 1557 1556
1518 1525 1523 1514 1506 1508 1514 1523 1518 1518 1520 1522 1524 1526 1529 1531 1533 1534 1536 1538 1540 1542 1544 1546 1548 1549 1551 1552 1553 1555 1555 1556 1556 1557 1557 1557 1557 1557 1558 1558 1558 1558 1558 1557 1557 1557 1556 1556 1555
1526 1524 1521 1518 1508 1509 1515 1517 1516 1517 1519 1520 1522 1525 1527 1528 1530 1532 1534 1537 1539 1541 1543 1545 1547 1548 1550 1551 1553 1554 1554 1555 1555 1556 1556 1556 1557 1557 1557 1557 1557 1557 1557 1556 1556 1556 1555 1555 1554
1512 1517 1519 1513 1506 1511 1515 1516 1515 1515 1517 1519 1520 1522 1524 1526 1529 1531 1533 1536 1538 1540 1542 1544 1545 1547 1549 1550 1551 1552 1553 1554 1554 1555 1555 1555 1556 1556 1555 1555 1555 1555 1555 1555 1555 1555 1554 1554 1553
1508 1516 1516 1511 1505 1510 1516 1517 1514 1514 1515 1516 1518 1519 1521 1525 1528 1530 1532 1534 1536 1538 1540 1542 1544 1545 1547 1548 1550 1551 1552 1553 1553 1553 1554 1554 1554 1554 1554 1554 1554 1554 1554 1554 1554 1553 1553 1552 1552
1508 1513 1513 1514 1510 1510 1518 1524 1519 1515 1516 1517 1517 1518 1520 1521 1524 1527 1529 1531 1534 1536 1538 1540 1542 1544 1545 1547 1549 1550 1550 1551 1551 1552 1552 1552 1553 1553 1553 1552 1552 1552 1552 1552 1552 1552 1552 1551 1551
1512 1502 1503 1508 1518 1528 1522 1541 1525 1518 1517 1516 1516 1517 1518 1520 1521 1524 1527 1530 1532 1534 1537 1539 1540 1542 1544 1546 1547 1548 1548 1549 1549 1550 1550 1551 1551 1551 1551 1550 1550 1550 1550 1550 1550 1550 1550 1549 1549
1501 1495 1500 1506 1518 1527 1525 1536 1530 1518 1520 1516 1514 1515 1516 1518 1519 1521 1524 1527 1530 1532 1535 1537 1538 1540 1542 1544 1545 1546 1547 1547 1548 1548 1549 1549 1549 1549 1549 1549 1548 1548 1548 1548 1548 1548 1548 1547 1547
1492 1498 1505 1514 1525 1540 1528 1535 1533 1520 1514 1512 1511 1512 1514 1515 1518 1520 1523 1526 1528 1530 1532 1535 1537 1538 1540 1541 1543 1544 1545 1545 1546 1546 1546 1547 1547 1547 1547 1547 1546 1546 1546 1545 1545 1545 1545 1545 1545
1495 1517 1538 1543 1551 1545 1526 1530 1527 1506 1503 1505 1507 1510 1512 1514 1516 1518 1521 1524 1526 1528 1529 1532 1535 1536 1538 1539 1541 1541 1542 1543 1543 1543 1543 1544 1544 1544 1544 1544 1544 1544 1543 1543 1543 1543 1542 1542 1542
1497 1512 1538 1550 1553 1544 1528 1531 1517 1500 1499 1501 1505 1507 1509 1512 1514 1516 1518 1521 1523 1525 1527 1530 1532 1534 1536 1537 1538 1539 1540 1540 1540 1540 1541 1541 1542 1542 1542 1542 1542 1541 1541 1541 1541 1540 1540 1540 1540
1498 1507 1509 1529 1536 1544 1537 1525 1512 1501 1501 1503 1505 1506 1508 1509 1511 1513 1516 1519 1522 1524 1526 1528 1530 1532 1533 1535 1536 1537 1538 1538 1538 1538 1538 1539 1539 1540 1540 1540 1539 1539 1539 1539 1538 1538 1538 1537 1537
1487 1495 1514 1528 1544 1550 1540 1532 1526 1510 1505 1504 1505 1505 1506 1508 1509 1511 1514 1517 1519 1522 1524 1527 1528 1530 1531 1532 1534 1535 1535 1536 1536 1536 1536 1537 1537 1537 1537 1537 1537 1537 1536 1536 1536 1536 1535 1535 1535
1492 1497 1508 1523 1529 1545 1550 1537 1504 1503 1500 1502 1503 1503 1504 1506 1508 1510 1513 1515 1518 1520 1522 1525 1526 1528 1529 1530 1531 1532 1532 1533 1533 1533 1534 1534 1534 1534 1534 1534 1534 1534 1534 1534 1534 1534 1533 1533 1532
1484 1492 1504 1522 1528 1532 1539 1531 1495 1496 1497 1499 1501 1502 1504 1505 1507 1509 1511 1514 1517 1519 1520 1522 1524 1525 1527 1528 1529 1529 1530 1530 1531 1531 1531 1531 1531 1531 1531 1532 1532 1532 1532 1532 1531 1531 1531 1530 1530